Change the Weather History Date:

Monday, July 22, 2013

  Actual Average Record
Temperature  
Mean Temperature 72 °F -  
Max Temperature 77 °F 74 °F 91 °F (1998)
Min Temperature 66 °F 61 °F 55 °F (1992)
Cooling Degree Days 6    
Growing Degree Days 22 (Base 50)    
Moisture  
Dew Point 66 °F    
Average Humidity 87    
Maximum Humidity 96    
Minimum Humidity 71    
Precipitation  
Precipitation 0.00 in - - ()
Sea Level Pressure  
Sea Level Pressure 29.98 in    
Wind  
Wind Speed 4 mph (East)    
Max Wind Speed 8 mph    
Max Gust Speed -    
Visibility 6 miles    
Events Fog    
Averages and records for this station are not official NWS values.
T = Trace of Precipitation, MM = Missing Value Source: NWS Daily Summary

Daily Weather History Graph

Daily Weather History Graph

Search for Another Location

Airport or City:

Trip Planner

Search our weather history database for the weather conditions in past years. The results will help you decide how hot, cold, wet, or windy it might be!

Date:

Astronomy

Jul. 22, 2013 Rise Set
Actual Time 5:24 AM EDT 8:07 PM EDT
Civil Twilight 4:52 AM EDT 8:39 PM EDT
Nautical Twilight 4:11 AM EDT 9:20 PM EDT
Astronomical Twilight 3:25 AM EDT 10:06 PM EDT
Moon 7:49 PM EDT (7/22) 5:18 AM EDT (7/22)
Length of Visible Light 15h 47m
Length of Day
14h 42m
Full, 100% of the Moon is Illuminated
Jul 22
Full
Jul 22
Full
Jul 29
Last Quarter
Aug 6
New
Aug 14
First Quarter

Hourly Weather History & Observations

Time (EDT) Temp. Dew Point Humidity Pressure Visibility Wind Dir Wind Speed Gust Speed Precip Events Conditions
12:52 AM 66.9 °F 64.0 °F 90% 30.01 in 9.0 mi Calm Calm - N/A   Clear
1:52 AM 66.9 °F 64.9 °F 93% 30.00 in 8.0 mi Calm Calm - N/A   Clear
2:52 AM 68.0 °F 64.9 °F 90% 30.00 in 9.0 mi Calm Calm - N/A   Scattered Clouds
3:52 AM 68.0 °F 66.0 °F 93% 30.00 in 8.0 mi Calm Calm - N/A   Partly Cloudy
4:52 AM 69.1 °F 66.0 °F 90% 29.99 in 8.0 mi Calm Calm - N/A   Partly Cloudy
5:52 AM 69.1 °F 66.0 °F 90% 30.00 in 7.0 mi East 4.6 mph - N/A   Clear
6:52 AM 70.0 °F 66.0 °F 87% 29.99 in 8.0 mi ENE 4.6 mph - N/A   Partly Cloudy
7:52 AM 70.0 °F 66.9 °F 90% 30.01 in 8.0 mi SE 3.5 mph - N/A   Partly Cloudy
8:10 AM 69.8 °F 66.2 °F 88% 30.02 in 8.0 mi Calm Calm - N/A   Mostly Cloudy
8:22 AM 69.8 °F 66.2 °F 88% 30.01 in 9.0 mi Calm Calm - N/A   Scattered Clouds
8:52 AM 71.1 °F 66.0 °F 84% 30.02 in 10.0 mi East 3.5 mph - N/A   Partly Cloudy
9:52 AM 72.0 °F 66.9 °F 84% 30.02 in 10.0 mi ESE 5.8 mph - N/A   Partly Cloudy
10:48 AM 73.4 °F 66.2 °F 78% 30.02 in 9.0 mi ESE 5.8 mph - N/A   Mostly Cloudy
10:52 AM 73.0 °F 66.9 °F 81% 30.02 in 9.0 mi ESE 5.8 mph - N/A   Mostly Cloudy
11:28 AM 69.8 °F 66.2 °F 88% 30.02 in 1.5 mi SE 5.8 mph - N/A   Overcast
11:41 AM 69.8 °F 66.2 °F 88% 30.02 in 3.0 mi ESE 5.8 mph - N/A   Overcast
11:52 AM 72.0 °F 66.0 °F 81% 30.02 in 10.0 mi SE 5.8 mph - N/A   Overcast
12:05 PM 71.6 °F 66.2 °F 83% 30.01 in 10.0 mi ESE 5.8 mph - N/A   Overcast
12:27 PM 73.4 °F 66.2 °F 78% 30.01 in 10.0 mi ESE 5.8 mph - N/A   Scattered Clouds
12:52 PM 73.9 °F 66.9 °F 79% 30.01 in 10.0 mi ESE 5.8 mph - N/A   Clear
1:52 PM 77.0 °F 66.9 °F 71% 29.99 in 10.0 mi Variable 6.9 mph - N/A   Clear
2:52 PM 75.0 °F 66.0 °F 73% 29.98 in 10.0 mi East 6.9 mph - N/A   Clear
3:38 PM 73.4 °F 66.2 °F 78% 29.96 in 9.0 mi ESE 6.9 mph - N/A   Scattered Clouds
3:47 PM 71.6 °F 66.2 °F 83% 29.96 in 8.0 mi ESE 6.9 mph - N/A   Mostly Cloudy
3:52 PM 72.0 °F 66.9 °F 84% 29.97 in 8.0 mi ESE 8.1 mph - N/A   Mostly Cloudy
4:47 PM 71.6 °F 66.2 °F 83% 29.95 in 5.0 mi ESE 5.8 mph - N/A   Overcast
4:52 PM 70.0 °F 66.9 °F 90% 29.96 in 5.0 mi ESE 5.8 mph - N/A   Overcast
5:52 PM 71.1 °F 66.9 °F 87% 29.95 in 2.5 mi NE 5.8 mph - N/A   Overcast
6:00 PM 69.8 °F 66.2 °F 88% 29.94 in 1.2 mi ENE 6.9 mph - N/A   Overcast
6:27 PM 69.8 °F 66.2 °F 88% 29.94 in 0.5 mi ENE 5.8 mph - N/A Fog Fog
6:52 PM 69.1 °F 66.9 °F 93% 29.94 in 0.5 mi East 6.9 mph - N/A Fog Fog
6:59 PM 69.8 °F 66.2 °F 88% 29.94 in 0.2 mi East 6.9 mph - N/A Fog Fog
7:12 PM 69.8 °F 68.0 °F 94% 29.94 in 0.5 mi ENE 5.8 mph - N/A Fog Fog
7:24 PM 69.8 °F 66.2 °F 88% 29.94 in 0.2 mi East 8.1 mph - N/A Fog Fog
7:33 PM 69.8 °F 66.2 °F 88% 29.94 in 0.5 mi ENE 5.8 mph - N/A Fog Fog
7:52 PM 69.1 °F 66.9 °F 93% 29.94 in 0.5 mi ENE 8.1 mph - N/A Fog Fog
8:11 PM 69.8 °F 66.2 °F 88% 29.94 in 1.5 mi East 6.9 mph - N/A   Overcast
8:34 PM 69.8 °F 66.2 °F 88% 29.94 in 0.8 mi East 5.8 mph - N/A   Mist
8:52 PM 69.1 °F 68.0 °F 96% 29.94 in 0.5 mi East 6.9 mph - N/A Fog Fog
9:52 PM 69.1 °F 68.0 °F 96% 29.92 in 0.8 mi ESE 6.9 mph - N/A   Mist
10:52 PM 69.1 °F 68.0 °F 96% 29.92 in 0.5 mi East 3.5 mph - N/A Fog Fog
11:52 PM 69.1 °F 68.0 °F 96% 29.91 in 0.5 mi East 5.8 mph - N/A Fog Fog